Regional Weather Roundup
Issued by NWS State College, PA

Current Version | Previous Version | Text Only | Print | Product List | Glossary On
Versions: 1 2 3 4 5 6 7 8 9 10 11 12 13 14 15 16 17 18 19 20 21 22 23 24 25 26 27 28 29 30 31 32 33 34 35 36 37 38 39 40 41 42 43 44 45 46 47 48 49 50
000
ASUS41 KCTP 201110
RWRCTP

REGIONAL WEATHER ROUNDUP
NATIONAL WEATHER SERVICE STATE COLLEGE PA
700 AM EDT MON OCT 20 2014

Note: "fair" indicates few or no clouds below 12,000 feet with no
significant weather and/or obstructions to visibility.

* = STATION THAT DOES NOT REPORT PRECIPITATION /E.G. RAIN...SNOW...ETC/
    THUNDER OR FOG.

PAZ002>004-007>009-013>016-020>023-029>032-201200-
WESTERN PENNSYLVANIA

CITY           SKY/WX    TMP DP  RH WIND       PRES   REMARKS
ERIE           MOCLDY    46  35  65 S10       29.94F
MEADVILLE      CLOUDY    44  35  70 S7        29.96F
FRANKLIN*      CLOUDY    41  34  75 S8        29.99F
NEW CASTLE       N/A     43  38  82 CALM      30.00F
BEAVER COUNTY  NOT AVBL
BUTLER*        CLOUDY    43  34  70 S6        30.02F
PITTSBURGH INT CLOUDY    42  37  82 S6        30.00F
PITTSBURGH     CLOUDY    42  33  70 S8        30.01F
INDIANA*       MOCLDY    43  37  81 SW3       30.06F
LATROBE        PTCLDY    39  37  93 CALM      30.05S
WASHINGTON CO* CLOUDY    39  34  81 S3        30.04S
$$

PAZ004>006-010>012-017>019-024>028-033>037-041-042-045-046-049>053-201200-
CENTRAL PENNSYLVANIA

CITY           SKY/WX    TMP DP  RH WIND       PRES   REMARKS
BRADFORD       CLOUDY    39  32  76 S5        29.97F
DUBOIS         CLOUDY    41  34  76 S3        29.99F
CLEARFIELD     CLOUDY    39  35  86 CALM      30.02F
JOHNSTOWN      MOCLDY    41  33  73 SW6       30.01F
ALTOONA        CLOUDY    41  36  82 SW5       30.04F
STATE COLLEGE  MOCLDY    41  36  81 CALM      30.03F
WILLIAMSPORT   CLOUDY    36  31  82 CALM      30.06S
SELINSGROVE    PTCLDY    36  34  92 CALM      30.07F
FT INDIANTOWN  CLEAR     31  31 100 N2        30.09S
CAPITAL CITY   CLEAR     37  34  89 SW3       30.09R
HARRISBURG     CLEAR     38  34  85 E5        30.09R
YORK           CLEAR     31  30  96 CALM      30.09R
$$

PAZ038>040-043-044-047-048-054-055-060>062-067>071-201200-
EASTERN PENNSYLVANIA

CITY           SKY/WX    TMP DP  RH WIND       PRES   REMARKS
SCRANTON       PTCLDY    34  28  79 E5        30.05S
MOUNT POCONO   MOCLDY    32  28  85 W5        30.03S
ALLENTOWN      PTCLDY    33  29  85 CALM      30.10R
QUAKERTOWN*    SUNNY     30  28  93 CALM      30.11R
READING        CLEAR     36  31  82 CALM      30.10R
LANCASTER      CLEAR     33  31  92 CALM      30.10R
COATESVILLE    SUNNY     37  32  81 CALM      30.11R
POTTSTOWN      CLEAR     31  29  92 CALM      30.12S
BLUE BELL      CLEAR     32  32 100 CALM      30.11R
DOYLESTOWN     CLEAR     31  30  96 CALM      30.10S
WILLOW GROVE   NOT AVBL
NORTH PHILA    CLEAR     36  30  79 CALM      30.14R
PHILADELPHIA   PTCLDY    41  31  67 S7        30.13S
$$



USA.gov is the U.S. government's official web portal to all federal, state and local government web resources and services.